Location: Newark
(56.9500°N, 24.6667°E)
Time: 20:45:10
(UTC+00:00)

Envisat - Visible Passes

Search period start: 17 October 2019 00:00
Search period end: 27 October 2019 00:00
Orbit: 764 x 766 km, 98.1° (Epoch: 17 October)

Date Brightness Start Highest point End Pass type
(mag) Time Alt. Az. Time Alt. Az. Time Alt. Az.
17 Oct 3.1 16:05:40 10° SSE 16:10:45 88° WSW 16:15:54 10° NNW visible
17 Oct 5.8 17:47:02 10° SW 17:50:33 18° W 17:54:04 10° NW visible
18 Oct 6.0 04:06:58 10° NE 04:10:34 19° E 04:14:08 10° SE visible
18 Oct 4.8 17:08:47 10° SSW 17:13:20 33° W 17:17:56 10° NNW visible
19 Oct 6.7 03:32:50 10° ENE 03:33:09 10° ENE 03:33:29 10° E visible
19 Oct 3.7 16:31:19 10° S 16:36:19 59° WSW 16:41:22 10° NNW visible
19 Oct 6.2 18:14:34 10° WSW 18:16:28 12° W 18:18:24 10° WNW visible
20 Oct 3.0 15:54:25 10° SSE 15:59:29 79° ENE 16:04:36 10° NNW visible
20 Oct 5.5 17:35:13 10° SW 17:39:08 22° W 17:43:03 10° NW visible
21 Oct 6.1 03:56:02 10° NE 03:59:07 16° E 04:02:13 10° ESE visible
21 Oct 4.5 16:57:15 10° SSW 17:01:59 39° W 17:06:45 10° NNW visible
22 Oct 3.3 16:19:57 10° S 16:25:01 70° WSW 16:30:08 10° NNW visible
22 Oct 6.0 18:02:16 10° WSW 18:05:01 14° W 18:07:47 10° NW visible
23 Oct 5.8 04:20:53 10° NE 04:25:00 24° E 04:29:05 10° SE visible
23 Oct 3.0 15:43:12 10° SSE 15:48:14 67° ENE 15:53:18 10° NNW visible
23 Oct 5.2 17:23:31 10° SSW 17:27:44 26° W 17:31:58 10° NW visible
24 Oct 6.3 03:45:16 10° NE 03:47:41 13° E 03:50:06 10° ESE visible
24 Oct 4.1 16:45:46 10° S 16:50:38 46° W 16:55:33 10° NNW visible
25 Oct 3.1 16:08:39 10° SSE 16:13:44 83° WSW 16:18:52 10° NNW visible
25 Oct 5.8 17:50:15 10° SW 17:53:35 17° W 17:56:55 10° NW visible
26 Oct 5.9 04:09:50 10° NE 04:13:35 20° E 04:17:19 10° SE visible
26 Oct 3.1 15:32:03 10° SE 15:37:00 57° ENE 15:42:00 10° N visible
26 Oct 4.9 17:11:52 10° SSW 17:16:21 31° W 17:20:52 10° NNW visible
